Location: Bucquoy
(50.1391°N, 2.7097°E)
Time: 02:13:34
(UTC+00:00)

CZ-3B R/B - Pass Details

Date: 06 May 2021
Orbit: 322 x 17349 km, 54.9° (Epoch: 24 June)

Event Time Altitude Azimuth Distance (km) Brightness Sun altitude
Exits shadow 01:29:25 22° 215° (SW) 6,822 6.7 -19.5°
Maximum altitude 01:43:28 61° 147° (SSE) 1,946 4.3 -18.4°
Drops below altitude 10° 01:49:00 10° 67° (ENE) 2,552 6.0 -18.0°
Sets 01:50:27 0° 63° (ENE) 3,115 6.7 -17.9°
